{"data":{"norad_id":68261,"epoch":"2026-09-19T14:45:20.671776Z","epoch_age_seconds":151724,"freshness":"FRESH","line1":"1 68261U 25241B   26262.61482259  .00004060  00000+0  17425-3 0  9993","line2":"2 68261  51.6575 229.8503 0008223  98.9139 261.2771 15.24912673 29318","mean_motion":15.24912673,"eccentricity":0.0008223,"inclination_deg":51.6575,"raan_deg":229.8503,"arg_perigee_deg":98.9139,"mean_anomaly_deg":261.2771,"bstar":0.00017425,"rev_number":2931,"period_min":94.431637004305,"perigee_km":485.39914189796,"apogee_km":496.69620301027,"semimajor_km":6869.1846724541,"source":"CELESTRAK","updated_at":"2026-09-20T09:00:24.109217Z"}}